Riverside March, CA

1:38 PM PDT on May 26, 2018 (GMT -0700)
March Air Reserve Base

Weather History for KRIV - March, 2014

Change the Weather History Date:

Tuesday, March 25, 2014

  Actual Average Record
Temperature  
Mean Temperature 58 °F -  
Max Temperature 64 °F 69 °F 86 °F (2015)
Min Temperature 53 °F 44 °F 30 °F (2009)
Degree Days  
Heating Degree Days 7    
Growing Degree Days 8 (Base 50)    
Moisture  
Dew Point 51 °F    
Average Humidity 85    
Maximum Humidity 94    
Minimum Humidity 65    
Precipitation  
Precipitation 0.00 in - - ()
Sea Level Pressure  
Sea Level Pressure 29.98 in    
Wind  
Wind Speed 4 mph (West)    
Max Wind Speed 10 mph    
Max Gust Speed -    
Visibility 6 miles    
Events      
Averages and records for this station are not official NWS values.
T = Trace of Precipitation, MM = Missing Value Source: NWS Daily Summary

Daily Weather History Graph

Daily Weather History Graph

Search for Another Location

Airport or City:

Astronomy

Mar. 25, 2014 Rise Set
Actual Time 6:45 AM PDT 7:04 PM PDT
Civil Twilight 6:20 AM PDT 7:29 PM PDT
Nautical Twilight 5:51 AM PDT 7:58 PM PDT
Astronomical Twilight 5:22 AM PDT 8:28 PM PDT
Moon 2:57 AM PDT (3/25) 1:53 PM PDT (3/25)
Length of Visible Light 13h 08m
Length of Day
12h 18m
Waning Crescent, 31% of the Moon is Illuminated
Mar 25
Waning Crescent
Mar 30
New
Apr 7
First Quarter
Apr 15
Full
Apr 22
Last Quarter

Hourly Weather History & Observations

Time (PDT) Temp. Dew Point Humidity Pressure Visibility Wind Dir Wind Speed Gust Speed Precip Events Conditions
12:43 AM 53.6 °F 51.8 °F 94% 30.04 in 4.0 mi West 5.8 mph - N/A   Overcast
12:58 AM 54.0 °F 52.0 °F 93% 30.01 in 4.0 mi West 3.5 mph - N/A   Overcast
1:08 AM 53.6 °F 51.8 °F 94% 30.03 in 4.0 mi West 3.5 mph - N/A   Overcast
1:18 AM 53.6 °F 51.8 °F 94% 30.03 in 4.0 mi West 2.3 mph - N/A   Overcast
1:43 AM 53.6 °F 51.8 °F 94% 30.02 in 4.0 mi WNW 2.3 mph - N/A   Overcast
1:53 AM 53.6 °F 51.8 °F 94% 30.02 in 4.0 mi WNW 3.5 mph - N/A   Overcast
1:58 AM 54.1 °F 52.0 °F 92% 30.01 in 4.0 mi West 5.8 mph - N/A   Overcast
2:08 AM 53.6 °F 51.8 °F 94% 30.01 in 4.0 mi West 3.5 mph - N/A   Overcast
2:58 AM 54.1 °F 52.0 °F 92% 29.98 in 4.0 mi Calm Calm - N/A   Overcast
3:58 AM 54.0 °F 52.2 °F 94% 29.97 in 4.0 mi ESE 1.2 mph - N/A   Overcast
4:28 AM 53.6 °F 51.8 °F 94% 29.98 in 4.0 mi Calm Calm - N/A   Overcast
4:58 AM 54.1 °F 52.2 °F 93% 29.96 in 3.0 mi NW 1.2 mph - N/A   Overcast
5:58 AM 54.1 °F 51.8 °F 92% 29.96 in 3.0 mi Calm Calm - N/A   Overcast
6:53 AM 53.6 °F 51.8 °F 94% 29.99 in 2.5 mi West 4.6 mph - N/A   Overcast
6:58 AM 54.0 °F 52.0 °F 93% 29.98 in 2.0 mi WNW 3.5 mph - N/A   Overcast
7:03 AM 53.6 °F 51.8 °F 94% 29.99 in 2.5 mi West 5.8 mph - N/A   Overcast
7:43 AM 53.6 °F 51.8 °F 94% 30.00 in 2.5 mi WNW 2.3 mph - N/A   Overcast
7:46 AM 53.6 °F 51.8 °F 94% 30.00 in 2.5 mi WNW 3.5 mph - N/A   Light Drizzle
7:51 AM 53.6 °F 51.8 °F 94% 30.00 in 2.0 mi WNW 3.5 mph - N/A   Light Drizzle
7:55 AM 53.6 °F 51.8 °F 94% 30.01 in 2.5 mi West 3.5 mph - N/A   Overcast
7:58 AM 53.6 °F 51.8 °F 94% 29.99 in 2.5 mi West 4.6 mph - 0.00 in   Overcast
8:08 AM 53.6 °F 51.8 °F 94% 30.01 in 3.0 mi NW 4.6 mph - N/A   Mostly Cloudy
8:18 AM 53.6 °F 51.8 °F 94% 30.01 in 2.5 mi WSW 3.5 mph - N/A   Mostly Cloudy
8:23 AM 53.6 °F 51.8 °F 94% 30.01 in 3.0 mi WSW 4.6 mph - N/A   Mostly Cloudy
8:28 AM 53.6 °F 51.8 °F 94% 30.01 in 4.0 mi SW 4.6 mph - N/A   Mostly Cloudy
8:33 AM 53.6 °F 51.8 °F 94% 30.01 in 4.0 mi West 3.5 mph - N/A   Mostly Cloudy
8:43 AM 53.6 °F 51.8 °F 94% 30.01 in 5.0 mi NW 2.3 mph - N/A   Mostly Cloudy
8:48 AM 53.6 °F 51.8 °F 94% 30.00 in 5.0 mi WNW 1.2 mph - N/A   Mostly Cloudy
8:58 AM 54.9 °F 51.4 °F 88% 29.99 in 4.0 mi NNW 1.2 mph - N/A   Overcast
9:58 AM 56.3 °F 50.5 °F 81% 29.99 in 4.0 mi Calm Calm - N/A   Overcast
10:58 AM 57.2 °F 50.9 °F 79% 29.98 in 5.0 mi Variable 2.3 mph - N/A   Mostly Cloudy
11:58 AM 59.0 °F 50.4 °F 73% 29.98 in 5.0 mi Variable 4.6 mph - N/A   Haze
12:13 PM 60.8 °F 50.0 °F 68% 29.99 in 10.0 mi SSW 4.6 mph - N/A   Mostly Cloudy
12:18 PM 59.0 °F 50.0 °F 72% 29.99 in 10.0 mi WNW 3.5 mph - N/A   Mostly Cloudy
12:28 PM 59.0 °F 50.0 °F 72% 29.99 in 10.0 mi WNW 8.1 mph - N/A   Mostly Cloudy
12:35 PM 60.8 °F 50.0 °F 68% 29.99 in 10.0 mi West 8.1 mph - N/A   Mostly Cloudy
12:58 PM 59.4 °F 49.8 °F 71% 29.97 in 6.0 mi Calm Calm - N/A   Haze
1:58 PM 63.0 °F 51.3 °F 66% 29.95 in 6.0 mi SSE 5.8 mph - N/A   Haze
2:58 PM 63.1 °F 52.0 °F 67% 29.93 in 10.0 mi SSE 6.9 mph - N/A   Scattered Clouds
3:58 PM 63.1 °F 51.6 °F 66% 29.91 in 10.0 mi Variable 2.3 mph - N/A   Scattered Clouds
4:36 PM 62.6 °F 51.8 °F 68% 29.91 in 10.0 mi WSW 4.6 mph - N/A   Mostly Cloudy
4:58 PM 62.6 °F 51.6 °F 67% 29.90 in 10.0 mi West 8.1 mph - N/A   Mostly Cloudy
5:58 PM 61.3 °F 49.6 °F 65% 29.90 in 10.0 mi West 10.4 mph - N/A   Mostly Cloudy
6:58 PM 59.0 °F 49.5 °F 71% 29.88 in 10.0 mi West 6.9 mph - N/A   Mostly Cloudy
7:58 PM 57.7 °F 50.4 °F 76% 29.88 in 10.0 mi West 8.1 mph - N/A   Mostly Cloudy
8:34 PM 57.2 °F 50.0 °F 77% 29.91 in 10.0 mi WNW 9.2 mph - N/A   Mostly Cloudy
8:58 PM 56.7 °F 50.0 °F 78% 29.90 in 10.0 mi West 9.2 mph - N/A   Mostly Cloudy
9:58 PM 55.9 °F 50.0 °F 80% 29.92 in 10.0 mi WNW 5.8 mph - N/A   Mostly Cloudy
10:58 PM 55.4 °F 49.5 °F 80% 29.92 in 10.0 mi NW 1.2 mph - N/A   Mostly Cloudy
11:55 PM 53.6 °F 49.8 °F 87% 29.93 in 10.0 mi NNW 8.1 mph - N/A   Mostly Cloudy